[[{"header":{"parameterUnit":"m.s-1","parameterCategory":1,"la1":30.2991,"la2":30.254,"lo1":-89.0895,"lo2":-89.0444,"dy":0.0017,"dx":0.0017,"nx":28,"ny":28,"refTime":"2024-08-22T03:00:00:Z","depth":0,"parameterNumber":2,"parameterNumberName":"U-component_of_WINDS"},"data":[0,0,0,0,0,0,0,0,0,0,0,0,0,0,0,0,0,0,0,0,0,0,0,0,0,0,0,0,0,0,0,0,0,0,0,0,0,0,0,0,0,0,0,0,0,0,0,0,0,0,0,0,0,0,0,0,0,0,-0.4179,-0.418,0,-0.4266,-0.4267,-0.4268,-0.4304,-0.4304,-0.4304,-0.4303,-0.4391,-0.4393,-0.4396,0,0,0,0,0,0,0,0,0,0,0,0,0,-0.4042,-0.4045,-0.4179,-0.418,-0.4181,-0.4266,-0.4267,-0.4268,-0.4304,-0.4304,-0.4303,-0.4303,-0.439,-0.4393,-0.4396,0,0,0,0,0,0,0,0,0,0,0,0,0,-0.4113,-0.4045,-0.4179,-0.4209,-0.4213,-0.4266,-0.4267,-0.4269,-0.4304,-0.4304,-0.4303,-0.4303,-0.4389,-0.4393,-0.4397,-0.4425,0,0,-0.4408,-0.441,0,0,0,0,0,0,0,0,-0.4109,-0.4118,-0.4204,-0.4207,-0.4212,-0.4274,-0.4251,-0.4321,-0.4304,-0.4269,-0.4303,-0.4303,-0.4352,-0.4359,-0.4376,-0.4429,-0.4433,-0.4408,-0.4411,-0.4412,-0.4413,0,0,0,0,0,0,0,-0.4104,-0.4114,-0.4214,-0.4205,-0.421,-0.4218,-0.4228,-0.4264,-0.4311,-0.4272,-0.4275,-0.4285,-0.4354,-0.4372,-0.4378,-0.4434,-0.4408,-0.4412,-0.4414,-0.4415,-0.4514,-0.4514,0,0,0,0,0,0,-0.4094,-0.411,-0.4211,-0.4216,-0.4158,-0.4221,-0.4232,-0.4254,-0.4311,-0.4319,-0.4285,-0.4286,-0.4366,-0.4374,-0.4381,-0.4418,-0.4412,-0.4416,-0.4418,-0.4513,-0.4514,-0.4514,0,0,0,0,0,0,-0.4091,-0.4103,-0.4207,-0.4164,-0.4178,-0.4223,-0.4248,-0.4256,-0.4274,-0.4321,-0.4329,-0.4295,-0.4366,-0.4376,-0.4414,-0.4421,-0.4417,-0.4421,-0.4513,-0.4514,-0.4514,-0.4491,0,0,0,0,0,0,-0.4087,-0.4101,-0.4113,-0.4164,-0.418,-0.4239,-0.4249,-0.4258,-0.428,-0.4283,-0.4332,-0.434,-0.4366,-0.4408,-0.4417,-0.4426,-0.4424,-0.4513,-0.4513,-0.4514,-0.4492,-0.4491,-0.449,0,0,0,0,0,-0.4082,-0.4103,-0.4114,-0.4126,-0.4196,-0.4239,-0.4248,-0.4279,-0.4281,-0.4293,-0.4323,-0.4338,-0.4419,-0.4411,-0.4422,-0.4433,-0.4512,-0.4513,-0.4514,-0.4492,-0.4491,-0.449,0,0,0,0,0,0,-0.4053,-0.4111,-0.4123,-0.4161,-0.4195,-0.4245,-0.4261,-0.4277,-0.4311,-0.4312,-0.4348,-0.4358,-0.4393,-0.4417,-0.4407,-0.4463,-0.4467,-0.447,-0.4446,-0.4446,-0.4445,-0.4439,-0.4427,0,0,0,0,0,-0.4051,-0.4082,-0.413,-0.416,-0.4176,-0.4215,-0.4236,-0.4256,-0.4292,-0.4307,-0.4339,-0.4373,-0.4406,-0.4427,-0.446,-0.4495,-0.4506,-0.4507,-0.4507,-0.4506,-0.4508,-0.4527,-0.4528,-0.4517,-0.4517,-0.4517,0,0,-0.4047,-0.4082,-0.41,-0.4155,-0.4183,-0.4214,-0.4227,-0.4259,-0.4282,-0.4312,-0.4349,-0.4374,-0.4414,-0.445,-0.4468,-0.4471,-0.4514,-0.4507,-0.4506,-0.4509,-0.4528,-0.4529,-0.453,-0.4518,-0.4518,-0.4517,0,0,-0.4056,-0.4086,-0.4113,-0.4141,-0.4184,-0.421,-0.4217,-0.4264,-0.4282,-0.432,-0.4343,-0.437,-0.4426,-0.4454,-0.4475,-0.4492,-0.4508,-0.4502,-0.4499,-0.4518,-0.4518,-0.4519,-0.4525,-0.4527,-0.4504,-0.4504,-0.4504,0,-0.4046,-0.4093,-0.4125,-0.4156,-0.4179,-0.4207,-0.4234,-0.426,-0.4311,-0.4326,-0.4329,-0.4399,-0.4428,-0.4471,-0.4475,-0.4491,-0.4499,-0.4497,-0.4516,-0.4517,-0.4518,-0.4524,-0.4526,-0.4503,-0.4503,-0.4503,-0.4503,0,-0.4078,-0.4111,-0.4127,-0.4176,-0.4201,-0.423,-0.4266,-0.4287,-0.4304,-0.433,-0.4368,-0.4403,-0.4444,-0.4455,-0.4473,-0.45,-0.45,-0.4509,-0.4514,-0.4518,-0.4524,-0.4527,-0.4502,-0.4502,-0.4502,-0.4503,0,0,-0.4072,-0.4137,-0.4143,-0.4165,-0.4214,-0.4239,-0.4269,-0.4308,-0.4325,-0.4359,-0.4384,-0.4431,-0.4439,-0.4463,-0.4484,-0.45,-0.451,-0.4506,-0.4508,-0.4506,-0.4541,-0.4534,-0.4537,-0.4521,-0.4521,-0.4522,-0.4538,0,-0.4087,-0.4142,-0.4171,-0.4213,-0.4243,-0.4269,-0.4294,-0.4326,-0.435,-0.4379,-0.4405,-0.4437,-0.4446,-0.446,-0.4477,-0.4505,-0.4518,-0.4505,-0.4544,-0.4545,-0.4533,-0.454,-0.4533,-0.4547,-0.454,-0.4541,-0.4541,0,-0.4113,-0.4146,-0.4191,-0.4236,-0.4249,-0.4272,-0.431,-0.4337,-0.4373,-0.4389,-0.4415,-0.4436,-0.4467,-0.4469,-0.4512,-0.4502,-0.4519,-0.4536,-0.4537,-0.4542,-0.4543,-0.4545,-0.4552,-0.4554,-0.4545,-0.4545,-0.4545,0,-0.4103,-0.4159,-0.4193,-0.4211,-0.4264,-0.4279,-0.4302,-0.4338,-0.436,-0.4393,-0.4407,-0.4443,-0.4462,-0.4489,-0.4518,-0.4517,-0.4558,-0.4562,-0.4572,-0.4571,-0.4579,-0.4579,-0.4589,-0.459,-0.459,-0.459,-0.459,0,-0.4117,-0.4143,-0.419,-0.4211,-0.424,-0.4273,-0.4302,-0.4326,-0.4358,-0.4383,-0.4408,-0.4431,-0.4468,-0.4496,-0.4519,-0.455,-0.4559,-0.4572,-0.4578,-0.457,-0.4568,-0.4582,-0.4582,-0.4591,-0.4591,-0.4591,-0.4591,0,-0.4111,-0.4144,-0.4182,-0.4229,-0.4241,-0.4261,-0.4301,-0.4321,-0.4346,-0.4378,-0.4387,-0.4426,-0.446,-0.4492,-0.4536,-0.4552,-0.4583,-0.4591,-0.4571,-0.4574,-0.4582,-0.458,-0.4602,-0.4606,-0.4604,-0.4604,-0.4604,0,-0.4118,-0.4139,-0.4188,-0.4207,-0.4229,-0.4259,-0.4281,-0.4313,-0.4335,-0.4378,-0.4393,-0.4428,-0.4459,-0.4511,-0.4543,-0.4577,-0.4585,-0.459,-0.4591,-0.4582,-0.4585,-0.4584,-0.4586,-0.459,-0.459,-0.459,-0.4589,0,-0.4127,-0.4141,-0.4172,-0.4209,-0.4234,-0.4264,-0.4295,-0.4309,-0.4347,-0.437,-0.4405,-0.4428,-0.4474,-0.4508,-0.4546,-0.4568,-0.4585,-0.4589,-0.4593,-0.4585,-0.4573,-0.4579,-0.4569,-0.4588,-0.4589,-0.4589,-0.4589,-0.4589,-0.4128,-0.4147,-0.4184,-0.4218,-0.4244,-0.4272,-0.4294,-0.4321,-0.4351,-0.4391,-0.4408,-0.4443,-0.4477,-0.453,-0.4552,-0.4579,-0.4583,-0.4589,-0.459,-0.4591,-0.4589,-0.4568,-0.4586,-0.4586,-0.4586,-0.4586,-0.4586,0,-0.4137,-0.4162,-0.4192,-0.4235,-0.4261,-0.4274,-0.4309,-0.4329,-0.436,-0.4391,-0.442,-0.446,-0.4493,-0.4527,-0.4562,-0.4577,-0.4586,-0.4585,-0.4585,-0.459,-0.4584,-0.4577,-0.4578,-0.4578,-0.4578,-0.4578,-0.4578,-0.4578,-0.4145,-0.4179,-0.4197,-0.4244,-0.4269,-0.4303,-0.4322,-0.4347,-0.4373,-0.4416,-0.4444,-0.4466,-0.4498,-0.4535,-0.4566,-0.4575,-0.4587,-0.4584,-0.4595,-0.459,-0.459,-0.459,-0.4584,-0.4586,-0.4586,-0.4599,-0.4599,-0.4599]},{"header":{"parameterUnit":"m.s-1","parameterCategory":1,"la1":30.2991,"la2":30.254,"lo1":-89.0895,"lo2":-89.0444,"dy":0.0017,"dx":0.0017,"nx":28,"ny":28,"refTime":"2024-08-22T03:00:00:Z","depth":0,"parameterNumber":3,"parameterNumberName":"V-component_of_WINDS"},"data":[0,0,0,0,0,0,0,0,0,0,0,0,0,0,0,0,0,0,0,0,0,0,0,0,0,0,0,0,0,0,0,0,0,0,0,0,0,0,0,0,0,0,0,0,0,0,0,0,0,0,0,0,0,0,0,0,0,0,-2.9535,-2.9536,0,-2.96,-2.9601,-2.9601,-2.9585,-2.9584,-2.9583,-2.9582,-2.9645,-2.9648,-2.965,0,0,0,0,0,0,0,0,0,0,0,0,0,-2.9394,-2.9397,-2.9535,-2.9536,-2.9537,-2.96,-2.9601,-2.9602,-2.9585,-2.9584,-2.9582,-2.9581,-2.9644,-2.9647,-2.9651,0,0,0,0,0,0,0,0,0,0,0,0,0,-2.9457,-2.9398,-2.9535,-2.9536,-2.9537,-2.96,-2.9601,-2.9602,-2.9586,-2.9584,-2.9582,-2.958,-2.9643,-2.9647,-2.9651,-2.9715,0,0,-2.9664,-2.9666,0,0,0,0,0,0,0,0,-2.9453,-2.9462,-2.9535,-2.9537,-2.9537,-2.9583,-2.9574,-2.964,-2.9586,-2.9567,-2.9582,-2.9579,-2.9625,-2.9631,-2.9647,-2.9718,-2.9721,-2.9665,-2.9667,-2.9669,-2.967,0,0,0,0,0,0,0,-2.9449,-2.9459,-2.9561,-2.9537,-2.9538,-2.9533,-2.9539,-2.9586,-2.9606,-2.9569,-2.9568,-2.9576,-2.9626,-2.9643,-2.9649,-2.9722,-2.9664,-2.9668,-2.9671,-2.9673,-2.9847,-2.9849,0,0,0,0,0,0,-2.9444,-2.9455,-2.9559,-2.9563,-2.949,-2.9537,-2.9544,-2.957,-2.9606,-2.9609,-2.9577,-2.9575,-2.9637,-2.9644,-2.9651,-2.9727,-2.9669,-2.9673,-2.9675,-2.9845,-2.9847,-2.985,0,0,0,0,0,0,-2.9441,-2.9453,-2.9556,-2.9509,-2.9522,-2.9541,-2.957,-2.9572,-2.959,-2.9612,-2.9615,-2.9592,-2.9636,-2.9645,-2.9699,-2.9729,-2.9675,-2.9679,-2.9842,-2.9846,-2.9848,-2.9881,0,0,0,0,0,0,-2.9437,-2.9453,-2.9478,-2.951,-2.9524,-2.9605,-2.9572,-2.9575,-2.9598,-2.9595,-2.9627,-2.963,-2.9635,-2.9693,-2.9703,-2.9734,-2.9682,-2.984,-2.9844,-2.9847,-2.9877,-2.9884,-2.9891,0,0,0,0,0,-2.9432,-2.9484,-2.9479,-2.9492,-2.9557,-2.9606,-2.9615,-2.962,-2.96,-2.9625,-2.9639,-2.9629,-2.9724,-2.9699,-2.971,-2.9742,-2.9838,-2.9843,-2.9847,-2.9874,-2.9883,-2.9891,0,0,0,0,0,0,-2.9455,-2.9488,-2.9483,-2.9548,-2.9574,-2.9604,-2.9635,-2.963,-2.9662,-2.9658,-2.9662,-2.967,-2.9725,-2.9739,-2.971,-2.9806,-2.9778,-2.9785,-2.9794,-2.9803,-2.981,-2.9805,-2.9686,0,0,0,0,0,-2.9467,-2.9506,-2.9533,-2.9587,-2.9601,-2.9616,-2.9638,-2.964,-2.9667,-2.9678,-2.9696,-2.9722,-2.9758,-2.9781,-2.9816,-2.9879,-2.9885,-2.9907,-2.9914,-2.9919,-2.9925,-2.9958,-2.9968,-2.9865,-2.9865,-2.9865,0,0,-2.9493,-2.9517,-2.9541,-2.9592,-2.9613,-2.9652,-2.9625,-2.9668,-2.9696,-2.9684,-2.9737,-2.9751,-2.978,-2.9839,-2.9866,-2.9853,-2.9955,-2.9925,-2.993,-2.9932,-2.9964,-2.9974,-2.9982,-2.9868,-2.9867,-2.9867,0,0,-2.9561,-2.9583,-2.9629,-2.9651,-2.9683,-2.9693,-2.9704,-2.9734,-2.9743,-2.9796,-2.9788,-2.9821,-2.9883,-2.9904,-2.9923,-2.9997,-2.9988,-3.0008,-3.0043,-3.0075,-3.0084,-3.0091,-3.0116,-3.0125,-3.0014,-3.0014,-3.0014,0,-2.9588,-2.9648,-2.9654,-2.9697,-2.9719,-2.9711,-2.9757,-2.9777,-2.9819,-2.9834,-2.9818,-2.9895,-2.9914,-2.9977,-2.9995,-3.0011,-3.0023,-3.0004,-3.0082,-3.0089,-3.0096,-3.012,-3.0129,-3.0016,-3.0016,-3.0015,-3.0015,0,-2.968,-2.9721,-2.9754,-2.9795,-2.9821,-2.9865,-2.9877,-2.9902,-2.9902,-2.9912,-2.9965,-2.9988,-3.0026,-3.0042,-3.0042,-3.0104,-3.0095,-3.0081,-3.0053,-3.0108,-3.013,-3.014,-3.0019,-3.0018,-3.0017,-3.0017,0,0,-2.9763,-2.9806,-2.9818,-2.9836,-2.9871,-2.9902,-2.9945,-2.9983,-3.0004,-3.0033,-3.0068,-3.0121,-3.0108,-3.0129,-3.0131,-3.0159,-3.0215,-3.0142,-3.0142,-3.0153,-3.0283,-3.0292,-3.0303,-3.0209,-3.0211,-3.0213,-3.028,0,-2.9832,-2.9909,-2.9915,-2.9985,-3.0021,-3.0014,-3.0051,-3.0076,-3.0087,-3.0119,-3.0131,-3.0167,-3.0149,-3.0161,-3.0189,-3.0202,-3.024,-3.0197,-3.0241,-3.0242,-3.0232,-3.0315,-3.0325,-3.0388,-3.0289,-3.0291,-3.0292,0,-2.9923,-2.9955,-3.0028,-3.0056,-3.0072,-3.0106,-3.014,-3.0171,-3.0198,-3.0204,-3.0228,-3.0226,-3.0269,-3.024,-3.0298,-3.0269,-3.0287,-3.0296,-3.0299,-3.0302,-3.0269,-3.0319,-3.0408,-3.0417,-3.0306,-3.0305,-3.0304,0,-2.9974,-3.0035,-3.0086,-3.0102,-3.0137,-3.0161,-3.0176,-3.0202,-3.0224,-3.0254,-3.0267,-3.0302,-3.032,-3.0346,-3.0353,-3.0332,-3.0411,-3.0383,-3.0415,-3.0415,-3.0431,-3.043,-3.0523,-3.0445,-3.0445,-3.0445,-3.0445,0,-3.005,-3.0094,-3.011,-3.0141,-3.019,-3.0197,-3.0245,-3.0258,-3.0281,-3.0314,-3.0309,-3.034,-3.0348,-3.0379,-3.0385,-3.0431,-3.044,-3.0445,-3.0445,-3.0444,-3.0443,-3.0455,-3.045,-3.0447,-3.0447,-3.0446,-3.0446,0,-3.0115,-3.0127,-3.0182,-3.0211,-3.0219,-3.0254,-3.0278,-3.0307,-3.0318,-3.0359,-3.0369,-3.0385,-3.0422,-3.0431,-3.0476,-3.0479,-3.0533,-3.0531,-3.0524,-3.0524,-3.0555,-3.0551,-3.0658,-3.0672,-3.0586,-3.0587,-3.0588,0,-3.0162,-3.0196,-3.0228,-3.025,-3.0267,-3.0303,-3.0325,-3.0332,-3.0355,-3.0389,-3.0413,-3.045,-3.048,-3.0539,-3.0553,-3.0587,-3.0584,-3.0619,-3.0588,-3.0586,-3.0582,-3.058,-3.0582,-3.0624,-3.0625,-3.0626,-3.0626,0,-3.0243,-3.0248,-3.0281,-3.0316,-3.0343,-3.0371,-3.0397,-3.0415,-3.0426,-3.0452,-3.049,-3.0513,-3.0558,-3.0594,-3.0627,-3.0641,-3.0635,-3.0636,-3.0645,-3.0643,-3.0638,-3.064,-3.0538,-3.0633,-3.0632,-3.0632,-3.0632,-3.0631,-3.03,-3.0329,-3.0356,-3.0393,-3.0414,-3.0438,-3.0467,-3.0481,-3.0513,-3.0551,-3.0553,-3.0594,-3.0619,-3.0663,-3.0679,-3.071,-3.07,-3.0713,-3.0716,-3.0719,-3.0721,-3.0634,-3.0717,-3.0716,-3.0716,-3.0716,-3.0716,0,-3.038,-3.0397,-3.043,-3.0468,-3.0496,-3.0489,-3.0517,-3.0541,-3.0578,-3.0602,-3.0631,-3.0674,-3.0708,-3.0726,-3.076,-3.0781,-3.0779,-3.079,-3.0787,-3.079,-3.0729,-3.0718,-3.0791,-3.0791,-3.0791,-3.0791,-3.0791,-3.0791,-3.0424,-3.0473,-3.0481,-3.0539,-3.0555,-3.0596,-3.0613,-3.0635,-3.0654,-3.0703,-3.0731,-3.0743,-3.0764,-3.0799,-3.083,-3.0834,-3.0846,-3.0858,-3.086,-3.0802,-3.0795,-3.0788,-3.0776,-3.0861,-3.0861,-3.0918,-3.0919,-3.0919]}]]